Location: Arrodets-la-Barthe
(43.0306°N, 0.2829°E)
Time: 17:47:27
(UTC+00:00)

BlueWalker 3 - Pass Details

Date: 05 December 2022
Orbit: 499 x 517 km, 53.2° (Epoch: 29 January)

Event Time Altitude Azimuth Distance (km) Brightness Sun altitude
Rises 18:16:44 0° 307° (NW) 2,629 6.2 -19.9°
Reaches altitude 10° 18:19:11 10° 320° (NW) 1,736 5.0 -20.3°
Enters shadow 18:21:48 25° 359° (N) 1,054 3.4 -20.8°
